This demonstration page uses our WeatherBlox Daily Observations layout. Learn more.

Left ArrowRight Arrow

Hourly Observations for September 5, 2021

Temp ( °F °C ) Dew Point ( °F °C ) Humidity (%) Winds ( mph kmh ) Pressure ( in mb ) Visibility ( mi km ) Precip ( " mm )
12:53 am 00:53 Clear 75 23.9 64 17.8 69 69 E 6 9 29.87 1011 10 16 0.00 0.00
1:53 am 01:53 Clear 74 23.3 62 16.7 67 67 SE 6 9 29.86 1011 10 16 0.00 0.00
2:53 am 02:53 Clear 73 22.8 61 16.1 66 66 SSW 5 7 29.86 1011 10 16 0.00 0.00
3:53 am 03:53 Clear 71 21.7 63 17.2 76 76 NNW 7 11 29.86 1011 10 16 0.00 0.00
4:53 am 04:53 Clear 71 21.7 66 18.9 84 84 N 7 11 29.86 1011 10 16 0.00 0.00
5:53 am 05:53 Clear 71 21.7 65 18.3 81 81 N 8 13 29.86 1011 10 16 0.00 0.00
6:53 am 06:53 Clear 71 21.7 65 18.3 81 81 N 8 13 29.87 1011 10 16 0.00 0.00
7:53 am 07:53 Mostly Cloudy 71 21.7 66 18.9 84 84 NNE 6 9 29.90 1012 10 16 0.00 0.00
8:53 am 08:53 Sunny 73 22.8 67 19.4 81 81 N 7 11 29.93 1014 10 16 0.00 0.00
9:53 am 09:53 Mostly Sunny 76 24.4 66 18.9 72 72 NNE 5 7 29.95 1014 10 16 0.00 0.00
10:53 am 10:53 Mostly Cloudy 81 27.2 61 16.1 51 51 ENE 5 7 29.95 1014 10 16 0.00 0.00
11:53 am 11:53 Mostly Cloudy 86 30 63 17.2 46 46 VRB 5 7 29.95 1014 10 16 0.00 0.00
12:53 pm 12:53 Sunny 89 31.7 61 16.1 39 39 VRB 3 6 29.93 1014 10 16 0.00 0.00
1:53 pm 13:53 Mostly Sunny 92 33.3 61 16.1 36 36 VRB 5 7 29.90 1013 10 16 0.00 0.00
2:53 pm 14:53 Mostly Sunny 92 33.3 55 12.8 29 29 SE 7 11 29.87 1012 10 16 0.00 0.00
3:50 pm 15:50 Cloudy 84 29 64 18 51 51 NNE 26 43 29.82 1010 10 16 0.00 0.00
3:53 pm 15:53 Cloudy 84 28.9 64 17.8 51 51 NNE 25 41 29.89 1012 10 16 0.00 0.00
4:11 pm 16:11 Mostly Cloudy with Nearby Thunderstorms 82 27.8 65 18.3 56 56 NNE 18 30 29.83 1010 10 16 0.00 0.00
4:48 pm 16:48 Sunny 81 27 64 18 58 58 NNE 16 26 29.84 1011 10 16 0.00 0.00
4:53 pm 16:53 Sunny 81 27.2 63 17.2 54 54 NE 17 28 29.90 1012 10 16 0.00 0.00
5:53 pm 17:53 Sunny 83 28.3 60 15.6 46 46 NE 16 26 29.87 1012 10 16 0.00 0.00
6:53 pm 18:53 Sunny 81 27.2 63 17.2 54 54 NE 12 19 29.88 1012 10 16 0.00 0.00
7:53 pm 19:53 Sunny 81 27.2 64 17.8 57 57 ENE 12 19 29.89 1012 10 16 0.00 0.00
8:53 pm 20:53 Mostly Cloudy 80 26.7 62 16.7 54 54 ENE 8 13 29.89 1012 10 16 0.00 0.00
9:53 pm 21:53 Clear 78 25.6 63 17.2 60 60 NE 10 17 29.93 1014 10 16 0.00 0.00
10:53 pm 22:53 Clear 75 23.9 65 18.3 71 71 NNE 5 7 29.94 1014 10 16 0.00 0.00
11:53 pm 23:53 Clear 75 23.9 63 17.2 66 66 E 7 11 29.94 1014 10 16 0.00 0.00

Powered by AerisWeather